Regional Weather Roundup
Issued by NWS

Home | Current Version | Previous Version | Graphics & Text | Print | Product List | Glossary On
Versions: 1 2 3 4 5 6 7 8 9 10 11 12 13 14 15 16 17 18 19 20 21 22 23 24 25 26 27 28
000
ASUS45 KSLC 190510
RWRUT

UTAH REGIONAL WEATHER ROUNDUP
NATIONAL WEATHER SERVICE SALT LAKE CITY UT
1100 PM MDT FRI APR 18 2014

UTZ001>011-023>025-190600-

NORTHERN UTAH

CITY           SKY/WX    TMP DP  RH WIND       PRES   REMARKS
HILL AFB       PTCLDY    53  39  59 N5        29.98S
LOGAN          CLEAR     47  40  76 W3        30.00R
OGDEN          PTCLDY    53  40  61 CALM      29.97R
PROVO AIRPORT  CLOUDY    54  45  71 CALM      29.97R
SALT LAKE CITY MOCLDY    54  47  77 N3        29.96S
VERNAL         CLOUDY    54  28  36 CALM      29.93S
WENDOVER       CLOUDY    57  41  54 E7        29.95R
HEBER CITY     CLOUDY    43  30  61 CALM      29.99R
WEST JORDAN    MOCLDY    54  43  66 CALM      29.98S

$$

UTZ012>022-026-027-190600-

SOUTHERN UTAH

CITY           SKY/WX    TMP DP  RH WIND       PRES   REMARKS
BRYCE CANYON   MOCLDY    35  24  64 CALM      30.12R
CEDAR CITY     MOCLDY    51  24  34 S3        30.02R
MILFORD        MOCLDY    56  23  27 S13       29.97R
MOAB/CYNLANDS  CLOUDY    65  28  24 W10       29.95R
PRICE          CLOUDY    59  20  22 S5        29.98R
ST GEORGE      CLOUDY    68  30  24 E3        29.93R
KANAB          MOCLDY    55  30  38 SE5       30.05S

$$

REGIONAL REPORTS     COLORADO/ARIZONA

CITY           SKY/WX    TMP DP  RH WIND       PRES   REMARKS
CRAIG, CO      CLOUDY    50  34  54 CALM      30.00R
GRAND JUNCTION CLOUDY    64  26  23 N5        29.95S
RIFLE          CLOUDY    64  25  22 S16       29.99R
MONTROSE       CLOUDY    61  30  31 S6        30.04R
CORTEZ         MOCLDY    55  32  41 VRB5      30.09R
PAGE, AZ       CLOUDY    63  36  36 S17G28    29.99R
GRAND CANYON   CLOUDY    46  38  73 S9        30.13S
KINGMAN        CLOUDY    63  37  38 S20       29.98R
FLAGSTAFF      CLOUDY    43  40  89 NE5       30.14F

$$

REGIONAL REPORTS    NEVADA/IDAHO/WYOMING

CITY           SKY/WX    TMP DP  RH WIND       PRES   REMARKS
LAS VEGAS, NV  CLOUDY    75  30  19 S17       29.83R
ELY            MOCLDY    48  32  53 S8        30.01S
ELKO           MOCLDY    47  27  45 SE3       29.97R
POCATELLO, ID  CLEAR     46  19  34 S15       30.00R
BURLEY         CLEAR     43  30  60 S12       29.99S
EVANSTON, WY   MOCLDY    44  32  62 N9        30.06S
ROCK SPRINGS   CLOUDY    50  32  50 NW20G26   30.02F

$$



USA.gov is the U.S. government's official web portal to all federal, state and local government web resources and services.